Location: *
(50.0228°S, 177.2688°W)
Time: 10:30:41
(UTC+00:00)

CZ-2D R/B - Pass Details

Date: 07 April 2020
Orbit: 523 x 537 km, 97.4° (Epoch: 24 May)

Event Time Altitude Azimuth Distance (km) Brightness Sun altitude
Rises 07:00:07 0° 162° (SSE) 2,737 6.8 -16.4°
Reaches altitude 10° 07:02:20 10° 156° (SSE) 1,834 5.8 -16.8°
Maximum altitude 07:06:09 46° 82° (E) 746 3.5 -17.4°
Drops below altitude 10° 07:09:55 10° 7° (N) 1,800 5.8 -18.0°
Sets 07:12:05 0° 1° (N) 2,680 6.7 -18.3°
